Location: El Conde
(10.2895°N, 67.2409°W)
Time: 19:22:18
(UTC+00:00)

CZ-4B R/B - Pass Details

Date: 19 May 2024
Orbit: 808 x 881 km, 99.0° (Epoch: 12 June)

Event Time Altitude Azimuth Distance (km) Brightness Sun altitude
Exits shadow 23:52:51 23° 93° (E) 1,694 4.2 -16.4°
Maximum altitude 23:53:55 25° 75° (ENE) 1,629 4.3 -16.6°
Drops below altitude 10° 23:58:13 10° 21° (NNE) 2,424 5.6 -17.6°
Sets 00:00:55 0° 9° (N) 3,345 6.5 -18.2°
